Vorticity
-1 11 7 13 4 3 6 6 16 17 13 9 8 7 8 7 8 4 7 6 10 10 7 5 6 5 4 4 4 5 7 9 10 10 9 9 7 9 6 8 8 5 7
-1 19 6 13 -2 1 6 5 14 15 16 14 11 9 6 8 7 4 8 17 8 7 5 6 5 4 4 4 6 9 10 10 9 8 7 8 5 5 9 9 7 5 5
-5 8 7 2 1 5 8 7 13 16 17 16 12 9 7 9 12 2 8 9 6 6 6 5 4 3 5 7 10 11 10 8 8 8 8 12 9 8 6 5 6 7 6
10 3 6 6 2 5 5 1 12 13 12 10 9 8 10 12 14 14 10 7 7 6 6 4 3 5 5 9 10 9 7 8 9 9 8 8 7 7 7 6 4 4 4
16 4 4 1 10 3 2 3 13 11 10 9 10 12 16 14 10 7 7 6 5 6 4 4 4 4 6 9 8 8 10 10 9 8 7 5 5 5 4 3 3 2 4
9 3 1 -0 1 5 4 5 11 10 8 11 15 15 10 8 7 5 3 2 3 3 3 5 4 4 8 8 8 9 9 9 8 7 6 6 6 5 4 4 3 3 5
4 12 2 2 6 7 3 6 12 11 11 14 12 9 6 5 3 2 2 2 4 4 4 6 4 5 9 8 9 10 9 8 6 6 6 6 5 6 6 5 5 4 6
19 9 5 4 12 6 4 7 14 12 12 12 8 6 5 2 2 2 1 2 2 3 4 6 3 8 8 9 11 9 7 7 6 6 6 5 6 7 8 8 8 7 6
18 11 7 4 11 6 8 5 16 11 10 8 6 5 2 3 2 1 1 2 3 4 6 5 5 8 8 10 10 8 7 6 6 6 5 7 8 8 8 9 9 9 10
8 9 7 -0 4 10 11 9 14 10 9 6 5 3 2 2 1 2 2 2 3 4 6 4 8 8 10 10 8 7 6 6 6 6 7 8 8 8 9 9 9 9 8
14 29 27 15 2 13 6 16 11 7 6 5 4 2 1 1 2 2 2 3 3 5 5 6 8 9 11 8 6 6 6 6 7 7 7 8 8 9 9 9 8 7 9
23 19 16 7 11 10 11 14 8 7 5 3 2 2 2 2 2 2 3 2 3 6 4 9 9 11 8 7 6 6 7 7 7 7 8 9 8 9 9 7 8 9 12
12 14 12 10 12 10 18 9 6 6 5 4 3 2 2 2 2 3 3 3 6 5 9 9 10 8 7 6 6 6 7 8 8 9 9 9 10 7 7 9 9 13 21
12 14 11 11 17 18 11 7 6 5 4 3 2 2 3 3 3 3 3 6 6 8 8 10 9 8 6 6 6 7 7 7 9 8 10 9 7 8 10 14 20 19 13
10 9 13 16 14 11 8 6 5 5 4 3 4 3 3 4 4 4 5 6 7 7 9 10 8 6 6 6 7 7 8 9 9 10 9 7 8 14 18 19 17 13 17
9 7 10 12 11 9 8 7 6 5 5 4 4 5 5 5 5 6 6 6 6 9 10 7 6 6 7 8 7 9 9 9 10 8 6 8 17 19 19 14 15 17 12
15 16 14 10 11 10 9 9 9 8 7 7 8 7 7 6 7 5 6 7 10 9 7 7 6 7 8 8 9 8 9 11 8 6 9 17 19 17 13 16 15 12 15
11 14 16 13 10 10 10 10 9 9 9 9 8 7 7 7 5 7 7 10 9 7 7 6 7 8 8 8 8 9 10 7 6 8 17 20 17 14 18 13 10 17 23
9 12 14 13 13 11 10 9 8 10 10 8 8 6 7 6 8 7 10 9 8 7 6 7 8 9 8 9 9 10 7 6 8 16 22 16 14 16 14 11 15 20 16
6 10 9 7 6 7 8 10 11 9 7 7 5 7 7 7 8 9 9 8 6 6 7 8 9 8 9 9 9 6 5 8 14 20 16 14 15 16 12 15 17 12 10
8 9 6 8 8 9 9 9 7 6 5 7 8 8 6 8 9 9 7 6 6 7 7 8 10 10 9 9 6 7 9 15 19 17 15 15 16 12 16 17 12 9 12
10 6 8 10 8 9 10 7 5 7 7 7 7 7 8 10 9 7 6 7 6 7 9 9 9 9 9 7 7 10 16 19 15 16 16 17 12 15 18 13 9 14 13
10 8 10 8 12 9 5 6 6 7 8 7 8 9 10 8 6 7 6 6 7 9 9 10 8 8 8 7 8 15 18 14 14 14 18 13 14 19 13 11 13 12 9
12 13 13 11 6 6 7 6 7 7 8 9 9 10 8 7 7 6 6 7 9 9 10 7 8 8 7 8 14 18 14 13 12 16 15 14 17 15 11 15 15 11 12
15 11 6 6 6 6 9 9 9 9 9 10 9 8 7 7 5 6 6 8 9 10 8 8 8 8 8 13 18 14 12 13 15 16 14 16 16 13 19 15 13 12 12
8 6 6 8 10 9 9 9 9 10 10 10 8 7 6 5 6 6 8 10 10 8 8 8 8 8 15 18 15 12 14 17 15 14 14 16 12 17 12 12 13 11 9
Height
3075 3076 3078 3081 3084 3086 3086 3087 3089 3090 3092 3094 3095 3096 3097 3098 3099 3100 3100 3098 3098 3097 3095 3094 3092 3090 3088 3085 3083 3079 3075 3071 3067 3065 3063 3059 3055 3053 3050 3047 3044 3040 3037
3065 3069 3073 3076 3078 3080 3082 3082 3083 3085 3087 3089 3090 3092 3092 3094 3095 3096 3096 3095 3095 3094 3092 3091 3088 3086 3083 3080 3077 3073 3068 3063 3060 3056 3053 3051 3051 3046 3042 3040 3037 3033 3030
3055 3061 3066 3070 3073 3075 3078 3078 3079 3079 3082 3084 3085 3087 3088 3090 3092 3093 3092 3092 3092 3091 3089 3087 3085 3082 3078 3075 3070 3066 3062 3057 3052 3047 3044 3039 3036 3033 3035 3032 3029 3024 3021
3047 3052 3058 3063 3067 3071 3073 3075 3075 3076 3078 3080 3082 3083 3085 3086 3087 3088 3089 3089 3088 3087 3086 3083 3080 3077 3073 3068 3064 3060 3055 3050 3046 3042 3037 3032 3026 3020 3015 3021 3019 3014 3009
3039 3044 3050 3057 3061 3065 3068 3070 3071 3073 3075 3076 3078 3079 3080 3082 3084 3085 3086 3086 3085 3084 3082 3079 3076 3071 3067 3062 3057 3053 3048 3044 3039 3035 3031 3027 3021 3015 3005 2996 3000 3002 2998
3031 3037 3043 3049 3054 3059 3063 3065 3067 3069 3071 3072 3074 3076 3078 3080 3081 3082 3082 3082 3081 3080 3077 3074 3070 3066 3061 3056 3051 3046 3041 3037 3032 3028 3022 3016 3010 3005 2998 2988 2982 2973 2973
3022 3029 3034 3041 3048 3054 3058 3061 3063 3065 3067 3069 3071 3073 3075 3077 3078 3079 3079 3078 3077 3075 3072 3068 3063 3059 3054 3049 3044 3039 3034 3030 3025 3020 3015 3009 3002 2995 2988 2978 2971 2961 2956
3014 3021 3028 3036 3043 3049 3053 3057 3059 3061 3064 3066 3069 3071 3073 3074 3075 3075 3074 3073 3071 3068 3065 3061 3057 3052 3047 3042 3037 3032 3027 3022 3017 3012 3006 3000 2993 2986 2978 2968 2957 2945 2940
3005 3014 3022 3030 3037 3043 3048 3052 3055 3058 3061 3063 3066 3068 3070 3071 3071 3071 3070 3068 3065 3062 3058 3054 3050 3045 3039 3034 3030 3025 3020 3015 3010 3004 2998 2991 2984 2976 2968 2959 2950 2937 2922
2998 3006 3016 3025 3032 3038 3043 3047 3051 3055 3058 3060 3063 3065 3066 3067 3067 3066 3064 3062 3059 3055 3052 3047 3042 3037 3032 3027 3022 3017 3012 3006 3001 2994 2988 2981 2973 2965 2957 2948 2939 2929 2917
2993 3000 3009 3020 3027 3033 3038 3042 3046 3050 3054 3057 3059 3061 3062 3062 3062 3060 3058 3056 3053 3049 3045 3040 3036 3031 3026 3020 3015 3009 3004 2998 2992 2985 2977 2969 2961 2953 2944 2935 2926 2917 2906
2991 2998 3007 3016 3023 3028 3033 3038 3042 3046 3050 3053 3055 3057 3057 3057 3056 3055 3053 3050 3047 3042 3038 3034 3029 3024 3018 3012 3007 3001 2995 2988 2981 2974 2966 2958 2949 2940 2932 2922 2913 2902 2893
2990 2997 3005 3013 3019 3024 3029 3035 3039 3043 3047 3049 3051 3053 3053 3052 3051 3049 3047 3044 3040 3036 3031 3027 3021 3015 3010 3005 2999 2992 2986 2979 2971 2963 2954 2946 2937 2928 2919 2908 2897 2888 2877
2991 2998 3004 3010 3015 3020 3026 3031 3036 3040 3043 3046 3047 3048 3048 3047 3045 3043 3040 3037 3033 3029 3024 3018 3013 3008 3003 2997 2990 2983 2976 2969 2961 2953 2944 2936 2926 2915 2903 2892 2883 2874 2865
2992 2997 3002 3007 3012 3018 3023 3028 3033 3037 3039 3041 3043 3043 3042 3041 3040 3037 3034 3030 3026 3021 3016 3012 3006 3001 2995 2988 2981 2973 2966 2958 2951 2943 2934 2925 2913 2902 2891 2880 2872 2862 2853
2992 2996 3001 3006 3011 3016 3022 3026 3030 3033 3036 3037 3037 3037 3037 3036 3034 3031 3028 3024 3019 3014 3009 3004 2999 2993 2987 2980 2973 2964 2956 2948 2940 2931 2922 2912 2901 2891 2881 2872 2863 2855 2846
2992 2996 3001 3006 3011 3016 3021 3024 3027 3029 3031 3032 3032 3032 3032 3030 3028 3025 3021 3017 3013 3008 3003 2997 2991 2985 2978 2971 2963 2955 2947 2940 2931 2920 2910 2900 2889 2879 2870 2863 2854 2847 2840
2992 2996 3000 3004 3009 3013 3017 3020 3023 3025 3026 3027 3028 3028 3027 3025 3022 3019 3015 3011 3006 3001 2996 2990 2984 2977 2969 2961 2954 2946 2939 2930 2921 2910 2898 2887 2879 2870 2860 2851 2843 2838 2832
2994 2998 3001 3005 3008 3012 3014 3017 3019 3021 3022 3023 3023 3022 3021 3019 3016 3012 3008 3004 3000 2994 2989 2982 2975 2968 2961 2953 2945 2937 2928 2919 2909 2898 2887 2877 2867 2860 2852 2843 2834 2829 2824
2994 2997 3000 3003 3006 3009 3012 3014 3016 3017 3018 3018 3018 3017 3015 3013 3010 3005 3002 2998 2993 2988 2981 2975 2966 2959 2951 2944 2936 2927 2918 2908 2897 2889 2879 2870 2861 2853 2846 2837 2828 2821 2816
2993 2996 2998 3002 3004 3006 3008 3010 3012 3013 3014 3014 3013 3012 3010 3006 3003 3000 2995 2991 2986 2980 2973 2967 2959 2953 2945 2936 2927 2918 2907 2896 2887 2879 2871 2862 2853 2846 2839 2832 2824 2817 2809
2991 2994 2997 2999 3002 3004 3006 3008 3009 3010 3010 3009 3008 3006 3003 3001 2997 2993 2989 2984 2978 2972 2965 2959 2954 2947 2938 2928 2919 2908 2898 2888 2879 2871 2863 2853 2846 2839 2832 2826 2819 2812 2806
2990 2992 2995 2997 3000 3002 3004 3005 3006 3006 3005 3004 3002 3000 2998 2994 2991 2987 2983 2977 2971 2963 2957 2950 2943 2936 2929 2919 2908 2899 2890 2881 2872 2864 2855 2847 2841 2834 2827 2821 2814 2808 2802
2988 2991 2993 2995 2998 3000 3001 3002 3001 3001 3000 2999 2997 2995 2992 2989 2985 2980 2975 2969 2963 2956 2950 2942 2934 2927 2918 2909 2899 2889 2880 2871 2863 2856 2850 2842 2835 2829 2823 2817 2812 2806 2800
2986 2989 2992 2994 2995 2997 2997 2998 2998 2997 2996 2994 2991 2989 2986 2983 2978 2973 2968 2962 2956 2948 2940 2932 2924 2916 2908 2899 2889 2880 2873 2865 2858 2850 2844 2838 2831 2826 2820 2815 2809 2803 2797
2986 2988 2990 2992 2993 2994 2994 2994 2993 2992 2990 2989 2986 2984 2980 2977 2972 2967 2963 2955 2949 2942 2935 2927 2918 2910 2901 2893 2885 2877 2869 2860 2852 2846 2838 2833 2827 2821 2815 2810 2805 2800 2794